EW7063 Weather Reports


Display with metric or nautical units.
time (UTC)temp
F
wind
direction
speed
MPH
gust
MPH
rain 1hr
in
rain 24hr
in
rain mn
in
humidity
%
barometer
mb
20260507001151 53 323 2.0 7.0 0.00 0.59 0.25 67 1012.4
20260507000652 53 321 2.0 7.0 0.00 0.59 0.25 66 1012.4
20260507000151 53 321 2.0 6.0 0.00 0.60 0.25 68 1012.4
20260506235653 53 329 1.0 6.0 0.00 0.61 0.25 67 1012.3
20260506235153 53 304 2.0 5.0 0.00 0.63 0.25 68 1012.1
20260506235148 53 298 2.0 6.0 0.00 0.62 0.25 68 1012.2
20260506234146 53 327 2.0 5.0 0.00 0.63 0.25 67 1012.2
20260506233645 53 312 2.0 6.0 0.00 0.64 0.25 67 1012.3
20260506233419 53 281 2.0 6.0 0.00 0.64 0.25 67 1012.3
20260506232647 53 308 3.0 6.0 0.00 0.64 0.25 65 1012.3
20260506232140 53 273 2.0 6.0 0.00 0.65 0.25 63 1012.2
20260506231639 54 355 2.0 6.0 0.00 0.66 0.25 61 1012.3
20260506231140 54 317 3.0 8.0 0.00 0.67 0.25 60 1012.3
20260506230640 54 280 3.0 8.0 0.00 0.68 0.25 59 1012.4
20260506230140 54 292 3.0 6.0 0.00 0.69 0.25 61 1012.4
20260506225640 54 309 3.0 7.0 0.00 0.71 0.25 62 1012.6
20260506225134 54 309 3.0 7.0 0.00 0.73 0.25 58 1012.7
20260506224632 54 342 3.0 7.0 0.00 0.75 0.25 60 1012.7
20260506224135 54 300 3.0 7.0 0.00 0.76 0.25 62 1012.6
20260506223637 54 315 2.0 7.0 0.00 0.77 0.25 63 1012.7
20260506223133 54 302 2.0 6.0 0.00 0.77 0.25 59 1012.7
20260506222636 54 303 2.0 6.0 0.00 0.78 0.25 62 1012.7
20260506222129 54 304 3.0 6.0 0.00 0.79 0.25 64 1012.8
20260506221629 54 277 3.0 7.0 0.00 0.79 0.25 62 1012.8
20260506221127 54 317 2.0 7.0 0.00 0.79 0.25 61 1012.7
20260506220627 54 340 2.0 7.0 0.00 0.79 0.25 59 1012.8
20260506220127 54 327 4.0 9.0 0.00 0.81 0.25 58 1012.8
20260506215627 54 294 3.0 9.0 0.00 0.81 0.25 59 1012.7
20260506215123 54 245 2.0 5.0 0.00 0.81 0.25 67 1012.6
20260506214623 54 309 2.0 6.0 0.00 0.81 0.25 61 1012.5
20260506214356 54 297 3.0 7.0 0.00 0.81 0.25 59 1012.4
20260506213624 54 341 3.0 7.0 0.00 0.81 0.25 59 1012.4
20260506213121 54 312 2.0 6.0 0.00 0.81 0.25 59 1012.4
20260506212854 54 294 2.0 7.0 0.00 0.81 0.25 64 1012.3
20260506212120 54 310 4.0 10.0 0.00 0.81 0.25 62 1012.3
20260506211617 54 286 4.0 10.0 0.00 0.81 0.25 57 1012.2
20260506211115 54 255 4.0 9.0 0.00 0.81 0.25 59 1012.2
20260506210615 54 298 3.0 9.0 0.00 0.82 0.25 58 1012.2
20260506210115 54 313 4.0 9.0 0.00 0.82 0.25 57 1012.1
20260506205617 54 316 4.0 10.0 0.00 0.82 0.25 56 1012.1
20260506205111 54 324 4.0 10.0 0.00 0.83 0.25 58 1012.2
20260506204611 54 327 3.0 10.0 0.00 0.83 0.25 57 1012.2
20260506204113 54 355 4.0 10.0 0.00 0.83 0.25 54 1012.2
20260506203611 54 24 3.0 8.0 0.00 0.85 0.25 53 1012.3
20260506203112 54 321 3.0 8.0 0.00 0.86 0.25 59 1012.3
20260506202612 54 316 4.0 8.0 0.00 0.87 0.25 58 1012.2
20260506202343 54 338 4.0 8.0 0.00 0.88 0.25 56 1012.2
20260506201610 55 334 3.0 8.0 0.00 0.89 0.25 57 1012.1
20260506201111 55 5 2.0 9.0 0.00 0.90 0.25 60 1012.1
20260506200609 55 294 3.0 9.0 0.00 0.92 0.25 62 1012.1
20260506200108 55 295 3.0 6.0 0.00 0.93 0.25 65 1011.9
20260506195606 55 296 3.0 9.0 0.00 0.94 0.25 64 1011.9
20260506195104 55 355 3.0 9.0 0.00 0.94 0.25 58 1011.8
20260506194833 55 263 3.0 7.0 0.00 0.94 0.25 66 1011.9
20260506194058 55 301 3.0 9.0 0.00 0.94 0.25 62 1011.9
20260506193556 55 329 4.0 11.0 0.00 0.94 0.25 62 1011.9
20260506193055 55 300 3.0 11.0 0.00 0.94 0.25 62 1012.0
20260506192555 55 306 3.0 9.0 0.00 0.94 0.25 60 1012.1
20260506192058 55 306 3.0 9.0 0.00 0.94 0.25 61 1012.0
20260506191556 55 323 3.0 8.0 0.00 0.94 0.25 64 1012.0
20260506191054 55 292 4.0 12.0 0.00 0.94 0.25 63 1012.0
20260506190555 55 317 4.0 12.0 0.00 0.94 0.25 64 1012.1
20260506190057 55 239 3.0 8.0 0.00 0.94 0.25 64 1012.0
20260506185550 55 305 3.0 8.0 0.00 0.94 0.25 62 1012.0
20260506185328 56 322 4.0 11.0 0.00 0.94 0.25 59 1011.9
20260506185052 56 23 4.0 11.0 0.00 0.94 0.25 58 1012.0
20260506184052 56 338 3.0 8.0 0.00 0.94 0.25 61 1011.7
20260506183549 56 298 3.0 8.0 0.00 0.94 0.25 63 1011.4
20260506183052 56 328 3.0 7.0 0.00 0.94 0.25 65 1011.6
20260506182547 56 294 3.0 7.0 0.00 0.94 0.25 63 1011.8
20260506182047 56 316 4.0 10.0 0.00 0.94 0.25 62 1011.9
20260506181548 56 297 5.0 10.0 0.00 0.94 0.25 62 1011.8
20260506181046 56 300 4.0 10.0 0.00 0.94 0.25 61 1011.9
20260506180545 56 286 4.0 10.0 0.00 0.94 0.25 59 1011.9
20260506180045 56 340 4.0 10.0 0.00 0.94 0.25 60 1012.0
20260506175543 56 331 4.0 10.0 0.00 0.94 0.25 57 1012.1
20260506175041 56 350 4.0 9.0 0.00 0.94 0.25 58 1012.0
20260506174812 56 333 4.0 9.0 0.00 0.94 0.25 59 1012.1
20260506174041 56 336 4.0 10.0 0.00 0.94 0.25 62 1012.0
20260506173542 56 296 4.0 10.0 0.00 0.94 0.25 63 1012.0
20260506173041 56 17 4.0 9.0 0.00 0.94 0.25 61 1012.0
20260506172540 56 306 4.0 11.0 0.00 0.94 0.25 67 1012.1
20260506172042 56 343 5.0 11.0 0.00 0.94 0.25 62 1012.1
20260506171538 56 281 5.0 11.0 0.00 0.94 0.25 65 1012.0
20260506171039 56 306 4.0 11.0 0.00 0.94 0.25 62 1012.0
20260506170541 56 315 3.0 9.0 0.00 0.94 0.25 62 1012.0
20260506170309 56 288 3.0 9.0 0.00 0.94 0.25 67 1011.9
20260506165809 56 271 3.0 10.0 0.00 0.94 0.25 68 1011.9
20260506165040 56 319 4.0 11.0 0.00 0.94 0.25 65 1011.8
20260506164535 56 281 3.0 11.0 0.00 0.94 0.25 68 1011.8
20260506164035 56 355 3.0 9.0 0.00 0.94 0.25 72 1011.8
20260506163536 56 263 3.0 8.0 0.00 0.94 0.25 70 1012.0
20260506163034 55 308 3.0 10.0 0.00 0.94 0.25 68 1012.2
20260506162535 55 306 4.0 10.0 0.00 0.94 0.25 67 1012.2
20260506162035 55 303 3.0 9.0 0.00 0.94 0.25 69 1012.2
20260506161531 54 293 2.0 8.0 0.00 0.94 0.25 70 1011.9
20260506161033 54 348 3.0 8.0 0.00 0.94 0.25 67 1011.8
20260506160530 54 304 4.0 9.0 0.00 0.94 0.25 69 1011.9
20260506160031 54 294 4.0 9.0 0.00 0.94 0.25 70 1011.8
20260506155530 54 309 4.0 9.0 0.00 0.94 0.25 71 1012.0
20260506155306 53 321 4.0 9.0 0.00 0.94 0.25 71 1012.1
20260506154530 53 304 3.0 8.0 0.00 0.94 0.25 73 1012.0
20260506154031 53 348 3.0 8.0 0.00 0.94 0.25 79 1011.9
20260506153531 53 296 3.0 8.0 0.00 0.94 0.25 71 1011.7
20260506153030 53 331 3.0 9.0 0.00 0.94 0.25 74 1011.6
20260506152528 53 309 4.0 9.0 0.00 0.94 0.25 71 1011.3
20260506152028 53 317 4.0 9.0 0.00 0.94 0.25 74 1011.3
20260506151528 52 328 4.0 8.0 0.00 0.94 0.25 77 1011.3
20260506151029 52 322 4.0 8.0 0.00 0.94 0.25 76 1011.2
20260506150526 52 28 4.0 8.0 0.00 0.94 0.25 75 1010.9
20260506150025 51 340 4.0 8.0 0.00 0.94 0.25 74 1010.9
20260506145525 51 302 3.0 9.0 0.00 0.94 0.25 75 1011.1
20260506145022 51 302 4.0 9.0 0.00 0.94 0.25 77 1011.0
20260506144522 51 321 3.0 9.0 0.00 0.94 0.25 77 1010.9
20260506144022 50 318 2.0 6.0 0.00 0.94 0.25 80 1010.8
20260506143522 50 69 2.0 5.0 0.00 0.94 0.25 81 1011.0
20260506143020 49 323 2.0 7.0 0.00 0.94 0.25 82 1011.0
20260506142520 49 301 3.0 7.0 0.00 0.94 0.25 81 1011.0
20260506142021 48 327 2.0 7.0 0.00 0.94 0.25 81 1011.0
20260506141521 48 254 2.0 6.0 0.00 0.94 0.25 83 1011.0
20260506141017 48 322 2.0 6.0 0.00 0.94 0.25 83 1011.0
20260506140746 48 338 2.0 6.0 0.00 0.94 0.25 83 1011.0
20260506140247 47 343 2.0 6.0 0.00 0.94 0.25 83 1011.0
20260506135514 47 309 2.0 6.0 0.00 0.94 0.25 85 1010.9
20260506135014 47 341 2.0 5.0 0.00 0.94 0.25 86 1010.9
20260506134511 47 339 2.0 6.0 0.00 0.94 0.25 85 1010.7
20260506134240 47 346 3.0 7.0 0.00 0.94 0.25 86 1010.4
20260506134122 46 325 3.0 7.0 0.00 0.94 0.25 86 1010.5
20260506133006 46 343 2.0 5.0 0.00 0.94 0.25 88 1010.4
20260506132506 46 10 2.0 7.0 0.00 0.94 0.25 88 1010.4
20260506132006 46 296 2.0 7.0 0.00 0.94 0.25 88 1010.4
20260506131508 46 308 2.0 5.0 0.00 0.94 0.25 89 1010.5
20260506131004 46 304 1.0 5.0 0.00 0.94 0.25 89 1010.5
20260506130737 45 323 1.0 4.0 0.00 0.94 0.25 89 1010.3
20260506130007 45 323 2.0 6.0 0.00 0.94 0.25 89 1010.4
20260506125504 45 331 2.0 7.0 0.00 0.94 0.25 90 1010.3
20260506125004 45 328 2.0 7.0 0.00 0.94 0.25 90 1010.1
20260506124502 45 348 2.0 6.0 0.00 0.94 0.25 90 1010.2
20260506124235 45 322 3.0 6.0 0.00 0.94 0.25 90 1010.1
20260506123500 45 327 2.0 5.0 0.00 0.94 0.25 91 1010.2
20260506122958 44 341 2.0 6.0 0.00 0.94 0.25 91 1010.2
20260506122458 44 302 2.0 7.0 0.00 0.94 0.25 91 1010.1
20260506121956 44 355 2.0 7.0 0.00 0.94 0.25 91 1010.0
20260506121728 44 313 2.0 7.0 0.00 0.94 0.25 91 1009.8
20260506121228 44 355 2.0 7.0 0.00 0.94 0.25 91 1009.7
20260506120725 44 340 2.0 5.0 0.00 0.94 0.25 91 1009.4
20260506115954 44 318 2.0 8.0 0.00 0.94 0.25 91 1009.3
20260506115455 44 5 2.0 8.0 0.00 0.94 0.25 92 1009.0
20260506114952 44 355 2.0 6.0 0.00 0.94 0.25 92 1009.0
20260506114449 44 321 2.0 6.0 0.00 0.94 0.25 92 1009.0
20260506113952 44 0 2.0 5.0 0.00 0.94 0.25 92 1009.0
20260506113448 44 315 2.0 5.0 0.00 0.94 0.25 92 1009.0
20260506112947 44 343 2.0 5.0 0.00 0.94 0.25 92 1009.0
20260506112718 44 313 1.0 4.0 0.00 0.94 0.25 92 1009.1
20260506111949 44 315 2.0 7.0 0.00 0.94 0.25 92 1009.2
20260506111445 44 316 2.0 7.0 0.00 0.94 0.25 92 1008.8
20260506110945 44 327 2.0 8.0 0.00 0.94 0.25 92 1008.5
20260506110710 44 339 2.0 8.0 0.00 0.94 0.25 92 1008.4
20260506105936 44 26 2.0 6.0 0.00 0.94 0.25 92 1008.5
20260506105436 43 42 3.0 9.0 0.00 0.95 0.25 92 1008.2
20260506105207 44 321 3.0 9.0 0.00 0.95 0.25 92 1008.0
20260506104437 43 319 3.0 8.0 0.00 0.95 0.25 92 1008.0
20260506103934 43 9 3.0 8.0 0.00 0.95 0.25 92 1007.6
20260506103435 44 19 3.0 7.0 0.00 0.95 0.25 92 1007.7
20260506102926 44 0 3.0 7.0 0.00 0.95 0.25 92 1008.1
20260506102426 44 355 3.0 7.0 0.00 0.95 0.25 92 1008.6
20260506101927 44 343 2.0 7.0 0.00 0.95 0.25 92 1008.5
20260506101426 44 355 2.0 6.0 0.00 0.95 0.25 92 1007.9
20260506100924 44 355 3.0 6.0 0.00 0.96 0.25 92 1007.8
20260506100424 44 340 3.0 6.0 0.00 0.96 0.25 92 1007.9
20260506095921 44 355 2.0 5.0 0.00 0.96 0.25 92 1007.7
20260506095419 44 18 2.0 9.0 0.00 0.97 0.25 92 1007.8
20260506094921 44 321 3.0 9.0 0.00 0.97 0.25 92 1007.6
20260506094420 44 348 2.0 7.0 0.00 0.97 0.25 92 1007.5
20260506094151 44 18 2.0 6.0 0.00 0.97 0.25 92 1007.1
20260506093419 44 14 2.0 6.0 0.01 0.97 0.25 92 1006.9
20260506092915 44 11 2.0 4.0 0.01 0.98 0.25 92 1006.9
20260506092414 44 12 2.0 5.0 0.01 0.99 0.25 92 1007.0
20260506091916 44 5 2.0 6.0 0.01 1.00 0.25 92 1007.1
20260506091414 44 18 2.0 6.0 0.01 1.01 0.25 92 1007.1
20260506090912 44 38 2.0 4.0 0.02 1.02 0.25 92 1007.1
20260506090413 44 39 2.0 6.0 0.02 1.02 0.25 92 1007.2
20260506085906 44 43 2.0 7.0 0.03 1.02 0.25 92 1006.9
20260506085406 44 53 2.0 7.0 0.03 1.02 0.25 93 1006.9
20260506085138 44 39 2.0 7.0 0.03 1.02 0.25 93 1006.8
20260506084404 44 22 2.0 6.0 0.03 1.02 0.25 93 1007.0
20260506083904 44 330 2.0 7.0 0.03 1.01 0.25 93 1007.0
20260506083404 44 348 3.0 7.0 0.04 1.01 0.24 93 1007.1
20260506082903 44 347 3.0 7.0 0.04 1.01 0.24 93 1007.1
20260506082400 44 11 3.0 7.0 0.04 1.01 0.24 93 1007.0
20260506081901 44 0 3.0 7.0 0.04 1.01 0.24 93 1007.1
20260506081400 44 5 4.0 8.0 0.04 1.01 0.24 93 1007.2
20260506080900 44 14 3.0 9.0 0.03 1.00 0.23 93 1007.2
20260506080359 44 5 3.0 11.0 0.03 1.00 0.23 93 1007.3
20260506072859 45 10 3.0 8.0 0.01 0.97 0.20 93 1007.1
20260506072358 45 17 3.0 12.0 0.02 0.97 0.20 93 1006.9
20260506071900 45 11 4.0 12.0 0.03 0.97 0.20 93 1006.8
20260506071359 45 355 4.0 11.0 0.03 0.97 0.20 93 1006.7
20260506070858 45 13 3.0 9.0 0.04 0.97 0.20 93 1006.6
20260506070358 45 37 3.0 9.0 0.06 0.97 0.20 93 1006.7
20260506062351 45 14 3.0 7.0 0.10 0.95 0.18 93 1006.5
20260506061852 45 28 2.0 5.0 0.10 0.94 0.18 93 1006.7
20260506061354 45 13 3.0 9.0 0.12 0.94 0.17 93 1006.9
20260506060851 45 350 3.0 9.0 0.12 0.93 0.16 93 1006.9
20260506060351 45 337 3.0 8.0 0.10 0.91 0.14 92 1006.9
20260506060126 45 334 3.0 8.0 0.10 0.91 0.14 93 1006.9
20260506051345 47 349 3.0 9.0 0.05 0.82 0.06 92 1007.3
20260506050844 47 44 3.0 8.0 0.04 0.81 0.05 93 1007.3
20260506050344 47 61 4.0 8.0 0.04 0.81 0.04 93 1007.0
20260506050118 47 342 4.0 13.0 0.04 0.81 0.04 92 1006.8
20260506044840 47 50 5.0 11.0 0.03 0.80 0.03 93 1006.6
20260506044341 47 5 4.0 10.0 0.03 0.80 0.03 93 1006.8
20260506043840 48 355 4.0 10.0 0.03 0.80 0.03 93 1006.8
20260506043611 48 22 3.0 10.0 0.03 0.80 0.03 92 1006.9
20260506042841 48 28 2.0 7.0 0.03 0.80 0.03 93 1007.0
20260506042337 48 13 3.0 8.0 0.02 0.79 0.02 93 1007.1
20260506041835 48 310 3.0 8.0 0.01 0.78 0.01 93 1007.1
20260506041333 49 42 3.0 7.0 0.01 0.77 0.00 93 1006.9
20260506040831 49 39 2.0 8.0 0.01 0.77 0.00 93 1006.7
20260506040326 49 59 3.0 8.0 0.01 0.77 0.00 93 1006.6
20260506035825 49 15 3.0 8.0 0.01 0.77 0.77 93 1006.5
20260506035323 49 84 3.0 8.0 0.02 0.77 0.77 93 1006.6
20260506034823 49 52 3.0 10.0 0.03 0.77 0.77 93 1006.5
20260506034324 49 43 3.0 10.0 0.03 0.77 0.77 93 1006.5
20260506033827 49 65 3.0 7.0 0.05 0.77 0.77 93 1006.5
20260506033822 49 55 3.0 9.0 0.04 0.77 0.77 93 1006.6
20260506032819 49 46 3.0 12.0 0.07 0.77 0.77 93 1006.6
20260506032317 49 9 5.0 12.0 0.08 0.77 0.77 93 1006.5
20260506031818 49 16 4.0 12.0 0.10 0.77 0.77 93 1006.4
20260506031317 49 58 4.0 12.0 0.09 0.76 0.76 93 1006.7
20260506030818 49 66 5.0 12.0 0.10 0.76 0.76 93 1006.7
20260506030311 49 40 5.0 12.0 0.10 0.76 0.76 93 1006.7
20260506025809 49 55 4.0 10.0 0.10 0.76 0.76 92 1006.8
20260506025307 49 31 3.0 11.0 0.09 0.75 0.75 92 1007.0
20260506024810 49 32 3.0 11.0 0.09 0.74 0.74 92 1007.2
20260506024539 49 41 3.0 8.0 0.09 0.74 0.74 92 1007.4
20260506023808 49 17 3.0 8.0 0.09 0.73 0.73 92 1007.4
20260506023306 50 30 3.0 6.0 0.09 0.72 0.72 92 1007.5
20260506022803 50 26 4.0 13.0 0.07 0.70 0.71 93 1007.4
20260506022306 50 49 3.0 13.0 0.07 0.69 0.69 92 1007.4
20260506022033 50 54 3.0 9.0 0.06 0.67 0.67 92 1007.5
20260506021535 50 30 3.0 10.0 0.09 0.67 0.67 92 1007.5
20260506020804 50 5 3.0 11.0 0.09 0.66 0.67 92 1007.3
20260506020304 50 22 3.0 11.0 0.10 0.66 0.66 92 1007.2
20260506015802 51 17 3.0 9.0 0.11 0.66 0.66 92 1007.2
20260506015301 51 343 3.0 9.0 0.12 0.66 0.66 92 1007.1
20260506015028 51 9 3.0 9.0 0.14 0.65 0.65 92 1007.1
20260506014530 51 19 3.0 9.0 0.15 0.65 0.65 92 1007.0
20260506013757 51 30 3.0 8.0 0.15 0.64 0.64 92 1006.8
20260506013255 52 13 3.0 8.0 0.16 0.63 0.64 92 1006.8
20260506013027 52 5 3.0 8.0 0.17 0.63 0.63 92 1007.0
20260506012255 52 26 3.0 7.0 0.16 0.62 0.62 92 1007.0
20260506011757 53 340 3.0 8.0 0.16 0.61 0.61 92 1007.0
20260506011256 54 329 3.0 9.0 0.14 0.57 0.57 92 1006.8
20260506011251 53 55 3.0 8.0 0.14 0.58 0.59 92 1006.9
20260506010255 55 320 4.0 12.0 0.14 0.55 0.55 92 1006.8
20260506010249 54 283 4.0 9.0 0.14 0.56 0.56 92 1006.8
20260506005521 56 316 3.0 12.0 0.13 0.53 0.54 92 1006.6
20260506004750 57 305 4.0 11.0 0.12 0.51 0.52 92 1006.8
20260506004247 59 336 5.0 17.0 0.11 0.50 0.50 92 1006.7
20260506003752 59 184 4.0 11.0 0.09 0.47 0.47 92 1006.5
20260506003746 59 198 5.0 17.0 0.11 0.49 0.49 92 1006.5
20260506002746 59 196 5.0 13.0 0.08 0.46 0.46 92 1006.3
20260506002245 59 233 5.0 13.0 0.09 0.46 0.46 92 1006.2
20260506001745 59 221 4.0 12.0 0.09 0.45 0.45 92 1006.1